TimeAKST,TemperatureF,Dew PointF,Humidity,Sea Level PressureIn,VisibilityMPH,Wind Direction,Wind SpeedMPH,Gust SpeedMPH,PrecipitationIn,Events,Conditions,WindDirDegrees,DateUTC
12:53 AM,37.9,21.9,53,29.61,10.0,SSW,5.8,-,N/A,,Overcast,200,2013-03-09 09:53:00
1:53 AM,37.9,23.0,55,29.64,10.0,SW,9.2,-,N/A,,Overcast,230,2013-03-09 10:53:00
3:53 AM,36.0,28.9,76,29.68,10.0,South,10.4,18.4,0.00,,Overcast,180,2013-03-09 12:53:00
4:53 AM,35.1,30.0,82,29.69,9.0,SSW,16.1,23.0,0.00,Snow,Light Snow,200,2013-03-09 13:53:00
5:53 AM,34.0,30.0,85,29.71,10.0,South,10.4,20.7,0.00,,Overcast,190,2013-03-09 14:53:00
6:53 AM,34.0,30.0,85,29.74,9.0,Variable,4.6,-,0.00,,Overcast,0,2013-03-09 15:53:00
7:53 AM,33.1,30.0,89,29.76,6.0,South,4.6,-,0.00,Snow,Light Snow,190,2013-03-09 16:53:00
8:15 AM,30.2,24.8,80,29.76,5.0,WSW,10.4,-,0.00,Snow,Light Snow,240,2013-03-09 17:15:00
8:28 AM,30.2,24.8,80,29.76,10.0,WSW,9.2,-,0.00,,Overcast,240,2013-03-09 17:28:00
8:53 AM,30.0,25.0,82,29.80,9.0,SW,8.1,-,0.00,,Overcast,220,2013-03-09 17:53:00
9:53 AM,28.0,21.0,75,29.83,10.0,SW,10.4,-,N/A,,Overcast,230,2013-03-09 18:53:00
10:53 AM,27.0,19.0,72,29.88,10.0,WSW,9.2,-,N/A,,Mostly Cloudy,250,2013-03-09 19:53:00
11:53 AM,26.1,18.0,71,29.91,10.0,WSW,9.2,-,N/A,,Overcast,250,2013-03-09 20:53:00
12:53 PM,26.1,17.1,69,29.94,10.0,WSW,8.1,-,N/A,,Overcast,250,2013-03-09 21:53:00
1:53 PM,27.0,16.0,63,29.97,10.0,WSW,8.1,-,N/A,,Mostly Cloudy,250,2013-03-09 22:53:00
2:53 PM,28.0,15.1,58,29.99,10.0,WSW,6.9,-,N/A,,Mostly Cloudy,250,2013-03-09 23:53:00
3:53 PM,28.0,12.0,51,30.00,10.0,WSW,5.8,-,N/A,,Mostly Cloudy,240,2013-03-10 00:53:00
5:53 PM,25.0,5.0,43,30.05,10.0,WSW,6.9,-,N/A,,Clear,240,2013-03-10 02:53:00
6:53 PM,23.0,3.0,42,30.06,10.0,SW,5.8,-,N/A,,Clear,220,2013-03-10 03:53:00
7:53 PM,19.9,1.9,46,30.08,10.0,SSW,4.6,-,N/A,,Clear,210,2013-03-10 04:53:00
8:53 PM,17.1,3.9,56,30.08,10.0,SW,4.6,-,N/A,,Clear,220,2013-03-10 05:53:00
9:53 PM,19.9,3.9,50,30.09,10.0,SW,5.8,-,N/A,,Clear,220,2013-03-10 06:53:00
10:53 PM,18.0,3.9,54,30.09,10.0,ESE,3.5,-,N/A,,Clear,120,2013-03-10 07:53:00
11:53 PM,17.1,5.0,59,30.08,10.0,Calm,Calm,-,N/A,,Scattered Clouds,0,2013-03-10 08:53:00